Flag for U.S.A. Weather past 2 weeks in St. Petersburg, Florida, U.S.A.

Now
66 °F

Light rain. Fog.


Feels Like: 66 °F
Forecast: 65 / 72 °F
Wind: 9 mph from Northwest

Location: Whitted Airport


UV Index: 0 (Low)

Visibility: 4 mi


Pressure: 29.96 "Hg

Humidity: 87%

Dew point: 62 °F

Location of St. PetersburgLocation

Historic Weather in St. Petersburg

°F

St. Petersburg temperature yesterday

Maximum temperature yesterday: 77 °F (at 1:53 PM)
Minimum temperature yesterday: 69 °F (at 2:53 PM)
Average temperature yesterday: 72 °F

Past Weeks' High & Low Weather Summary

 TemperatureHumidityPressure
High83 °F (Apr 7, 12:53 PM)97% (Apr 5, 8:53 AM)30.28 "Hg (Apr 5, 8:53 AM)
Low55 °F (Apr 16, 8:53 AM)35% (Apr 10, 3:53 PM)29.73 "Hg (Apr 8, 4:53 AM)
Average73 °F76%30.01 "Hg
* Reported Apr 4 12:53 PM — Apr 19 12:53 PM, St. Petersburg, Weather by CustomWeather, © 2014

Note: Actual official high and low records may vary slightly from our data, if they occured in-between our weather recording intervals... More about our weather records

Advertising

Historic Weather Conditions — Data for Previous 24 hours

 ConditionsComfort  
Time TempWeatherWind HumidityBarometerVisibility
12:53 PM
Apr 19
66 °FLight rain. Fog.9 mph87%29.96 "Hg4 mi
11:53 AM69 °FOvercast.16 mph76%29.94 "Hg10 mi
10:53 AM70 °FCloudy.13 mph73%29.94 "Hg10 mi
9:53 AM68 °FMore clouds than sun.10 mph84%29.94 "Hg10 mi
8:53 AM68 °FCloudy.15 mph84%29.93 "Hg10 mi
7:53 AM68 °FPassing clouds.14 mph82%29.92 "Hg10 mi
6:53 AM69 °FPassing clouds.9 mph84%29.90 "Hg10 mi
5:53 AM70 °FPartly cloudy.12 mph84%29.89 "Hg10 mi
4:53 AM71 °FPartly cloudy.12 mph87%29.88 "Hg10 mi
3:53 AM73 °FMostly cloudy.13 mph90%29.87 "Hg10 mi
2:53 AM72 °FOvercast.10 mph93%29.89 "Hg10 mi
1:53 AM72 °FPartly cloudy.9 mph93%29.91 "Hg10 mi
12:53 AM71 °FClear.7 mph96%29.92 "Hg10 mi
11:53 PM
Apr 18
71 °FClear.8 mph93%29.92 "Hg10 mi
10:53 PM71 °FPassing clouds.3 mph93%29.93 "Hg10 mi
9:53 PM71 °FPassing clouds.5 mph93%29.92 "Hg10 mi
8:53 PM71 °FOvercast.6 mph90%29.91 "Hg10 mi
7:53 PM71 °FPassing clouds.10 mph90%29.90 "Hg10 mi
6:53 PM71 °FPartly sunny.9 mph90%29.91 "Hg10 mi
6:00 PM70 °FHeavy rain. Fog.8 mph93%29.94 "Hg1 mi
4:53 PM71 °FLight rain. Partly sunny.9 mph90%29.95 "Hg10 mi
3:53 PM70 °FLight rain. Cloudy.9 mph93%29.97 "Hg10 mi
3:04 PM69 °FLight rain. Cloudy.8 mph93%30.00 "Hg7 mi
2:53 PM69 °FThundershowers. Overcast.10 mph93%30.00 "Hg7 mi
Weather by CustomWeather, © 2014

See weather overview